Location: Newark
(41.6478°N, 9.0078°E)
Time: 07:26:39
(UTC+00:00)

UWE-3 - Pass Details

Date: 02 February 2020
Orbit: 585 x 682 km, 97.6° (Epoch: 20 February)

Event Time Altitude Azimuth Distance (km) Brightness Sun altitude
Rises 17:20:33 0° 213° (SSW) 2,801 ? -8.0°
Reaches altitude 10° 17:23:47 10° 241° (WSW) 1,905 ? -8.6°
Maximum altitude 17:25:45 13° 269° (W) 1,714 ? -8.9°
Drops below altitude 10° 17:27:43 10° 298° (WNW) 1,916 ? -9.3°
Sets 17:31:00 0° 326° (NNW) 2,832 ? -9.9°
